{"data":{"norad_id":63906,"epoch":"2026-09-20T10:17:40.111872Z","epoch_age_seconds":153201,"freshness":"FRESH","line1":"1 63906U 25095S   26263.42893648  .00010733  00000+0  39906-3 0  9991","line2":"2 63906  43.0036 156.1746 0001580 283.4078  76.6597 15.27574644 77568","mean_motion":15.27574644,"eccentricity":0.000158,"inclination_deg":43.0036,"raan_deg":156.1746,"arg_perigee_deg":283.4078,"mean_anomaly_deg":76.6597,"bstar":0.00039906,"rev_number":7756,"period_min":94.267079232823,"perigee_km":481.98106394017,"apogee_km":484.14920381448,"semimajor_km":6861.2021338773,"source":"CELESTRAK","updated_at":"2026-09-21T09:00:35.146204Z"}}